Temp
-4 -4 -4 -4 -4 -4 -4 -4 -4 -4 -5 -5 -5 -5 -5 -5 -5 -5 -5 -5 -5 -6 -6 -7 -6 -6 -6 -6 -6 -6 -7 -6 -7 -7 -7 -7 -6 -5 -5 -5 -5 -5 -5 -5 -4
-4 -4 -4 -4 -4 -4 -4 -4 -4 -4 -4 -5 -5 -5 -5 -5 -4 -5 -5 -5 -5 -5 -6 -6 -5 -6 -6 -8 -7 -7 -7 -7 -8 -7 -7 -7 -7 -6 -5 -5 -5 -5 -5 -4 -5
-4 -4 -4 -4 -4 -4 -4 -4 -4 -4 -4 -4 -5 -5 -5 -5 -5 -4 -5 -5 -5 -5 -5 -5 -5 -5 -8 -8 -8 -7 -7 -7 -6 -7 -6 -6 -7 -6 -4 -5 -4 -5 -5 -5 -5
-4 -4 -4 -4 -3 -3 -3 -4 -4 -4 -4 -4 -4 -5 -5 -4 -4 -4 -5 -5 -5 -5 -5 -5 -6 -6 -8 -7 -7 -7 -7 -8 -7 -7 -7 -7 -8 -6 -5 -5 -5 -5 -4 -5 -5
-4 -4 -3 -3 -3 -3 -3 -3 -4 -4 -4 -4 -5 -5 -5 -5 -5 -5 -5 -5 -5 -5 -5 -5 -6 -7 -7 -8 -8 -7 -8 -8 -7 -7 -8 -8 -6 -6 -5 -5 -5 -5 -5 -5 -5
-4 -4 -3 -3 -3 -3 -3 -3 -4 -4 -4 -4 -4 -5 -5 -5 -5 -5 -5 -5 -5 -5 -5 -5 -5 -6 -8 -8 -8 -8 -8 -8 -7 -6 -8 -7 -5 -5 -5 -5 -5 -5 -6 -5 -5
-4 -4 -3 -3 -3 -3 -3 -3 -4 -4 -4 -4 -4 -4 -5 -5 -5 -5 -5 -5 -5 -5 -5 -5 -5 -5 -6 -8 -6 -6 -8 -7 -7 -7 -8 -8 -7 -6 -5 -5 -5 -5 -5 -6 -6
-4 -4 -3 -3 -3 -3 -4 -4 -4 -4 -4 -4 -4 -4 -4 -5 -5 -5 -5 -5 -5 -5 -5 -5 -5 -5 -4 -6 -7 -7 -7 -7 -7 -8 -7 -7 -7 -6 -6 -5 -5 -5 -5 -5 -6
-5 -4 -4 -3 -3 -4 -4 -4 -4 -4 -4 -4 -4 -4 -5 -4 -4 -5 -5 -5 -5 -5 -5 -5 -5 -5 -5 -6 -7 -7 -7 -6 -7 -7 -7 -7 -7 -6 -6 -5 -6 -6 -6 -5 -5
-5 -5 -4 -4 -3 -4 -4 -4 -4 -4 -4 -4 -4 -4 -5 -4 -4 -4 -4 -4 -4 -4 -5 -5 -5 -5 -5 -7 -6 -5 -6 -6 -6 -7 -7 -8 -7 -6 -6 -6 -6 -6 -6 -6 -5
-5 -5 -5 -4 -4 -4 -4 -4 -4 -4 -4 -4 -4 -4 -4 -4 -4 -4 -4 -4 -4 -4 -4 -4 -4 -4 -6 -7 -6 -5 -5 -5 -6 -7 -7 -7 -7 -7 -6 -6 -6 -6 -6 -6 -6
-6 -5 -5 -5 -4 -4 -4 -4 -4 -4 -4 -4 -4 -4 -4 -4 -4 -4 -4 -4 -4 -4 -4 -4 -4 -5 -7 -6 -6 -6 -5 -5 -6 -6 -6 -6 -7 -7 -7 -8 -6 -6 -6 -7 -7
-6 -6 -5 -5 -5 -4 -4 -4 -4 -4 -4 -4 -4 -4 -4 -4 -4 -4 -4 -4 -4 -4 -4 -4 -5 -4 -7 -6 -6 -6 -6 -5 -6 -6 -6 -6 -6 -7 -7 -7 -8 -6 -6 -6 -6
-7 -7 -6 -5 -5 -5 -5 -4 -4 -4 -4 -4 -4 -4 -4 -4 -4 -4 -4 -4 -4 -4 -4 -4 -5 -6 -7 -5 -5 -6 -6 -6 -6 -6 -6 -6 -6 -7 -7 -6 -7 -6 -5 -5 -6
-7 -7 -7 -6 -6 -5 -4 -5 -5 -4 -4 -4 -4 -4 -4 -4 -4 -4 -4 -4 -4 -4 -4 -4 -4 -5 -4 -4 -6 -6 -6 -6 -6 -6 -6 -6 -6 -6 -6 -6 -6 -7 -6 -6 -5
-7 -7 -7 -7 -7 -6 -6 -5 -5 -5 -4 -6 -4 -3 -4 -4 -3 -4 -4 -4 -4 -4 -4 -5 -5 -5 -4 -4 -7 -7 -6 -6 -6 -6 -6 -6 -5 -5 -6 -7 -8 -7 -7 -6 -6
-7 -7 -7 -7 -7 -7 -7 -6 -6 -4 -5 -6 -3 -4 -4 -4 -4 -4 -4 -4 -4 -4 -4 -5 -6 -5 -4 -5 -7 -6 -6 -6 -6 -6 -5 -5 -5 -6 -6 -7 -8 -7 -8 -8 -7
-7 -7 -7 -7 -7 -8 -7 -7 -5 -4 -5 -6 -6 -4 -4 -4 -5 -4 -4 -4 -4 -4 -5 -5 -5 -4 -4 -4 -7 -4 -6 -6 -5 -5 -4 -5 -5 -6 -6 -7 -7 -7 -7 -8 -8
-7 -8 -8 -8 -7 -8 -8 -7 -4 -5 -6 -6 -8 -7 -4 -5 -5 -5 -4 -4 -4 -4 -5 -7 -5 -7 -5 -5 -6 -5 -4 -5 -6 -5 -5 -5 -6 -6 -6 -6 -6 -6 -6 -7 -7
-7 -7 -8 -9 -8 -8 -7 -6 -5 -6 -6 -8 -8 -8 -8 -5 -5 -6 -4 -4 -4 -4 -5 -6 -7 -7 -7 -6 -5 -7 -6 -6 -6 -5 -5 -5 -5 -6 -5 -6 -5 -5 -6 -6 -8
-8 -7 -9 -9 -8 -8 -6 -6 -6 -6 -8 -8 -9 -8 -8 -8 -7 -7 -5 -5 -4 -5 -5 -6 -7 -6 -6 -7 -6 -7 -7 -7 -6 -5 -5 -5 -6 -6 -6 -5 -6 -6 -6 -6 -6
-8 -8 -9 -8 -8 -8 -6 -6 -7 -7 -8 -8 -8 -9 -9 -8 -8 -8 -8 -7 -7 -5 -5 -5 -7 -6 -6 -7 -6 -7 -7 -7 -6 -6 -6 -6 -7 -7 -6 -6 -6 -6 -5 -5 -6
-8 -9 -9 -8 -8 -8 -8 -7 -7 -8 -8 -8 -8 -8 -9 -8 -8 -8 -7 -7 -8 -8 -7 -7 -6 -7 -7 -7 -7 -6 -7 -7 -7 -7 -6 -6 -6 -6 -6 -6 -6 -6 -6 -5 -6
-10 -10 -10 -9 -9 -8 -8 -8 -8 -8 -8 -8 -8 -10 -8 -8 -9 -8 -8 -8 -8 -8 -8 -8 -8 -6 -7 -6 -7 -7 -7 -7 -7 -7 -7 -6 -7 -7 -7 -6 -6 -6 -7 -7 -5
-13 -12 -14 -12 -10 -9 -9 -9 -9 -8 -8 -8 -8 -10 -8 -8 -8 -8 -8 -8 -8 -8 -8 -8 -8 -8 -7 -7 -7 -7 -7 -7 -7 -7 -7 -7 -7 -8 -7 -6 -7 -7 -7 -7 -6
-16 -16 -16 -9 -9 -10 -10 -9 -8 -8 -9 -8 -9 -8 -10 -8 -8 -8 -9 -9 -8 -8 -8 -8 -7 -8 -8 -7 -7 -7 -7 -7 -8 -7 -7 -7 -8 -7 -8 -8 -7 -8 -7 -7 -7
-18 -18 -16 -12 -12 -10 -9 -9 -9 -10 -10 -9 -9 -9 -9 -8 -8 -10 -10 -9 -9 -8 -9 -8 -7 -8 -6 -7 -8 -7 -7 -7 -7 -7 -8 -8 -8 -8 -8 -8 -8 -8 -8 -7 -7
Height
5895 5897 5898 5898 5900 5901 5902 5904 5905 5907 5908 5910 5911 5912 5913 5913 5914 5917 5918 5921 5922 5923 5924 5925 5926 5929 5931 5926 5935 5936 5941 5940 5940 5936 5934 5929 5927 5924 5923 5920 5917 5916 5915 5914 5914
5895 5896 5898 5899 5899 5901 5902 5904 5906 5908 5909 5911 5913 5914 5915 5916 5917 5919 5921 5922 5924 5925 5926 5926 5926 5930 5926 5934 5937 5940 5945 5941 5939 5939 5936 5933 5927 5924 5925 5923 5922 5921 5918 5918 5916
5893 5895 5897 5898 5899 5900 5902 5904 5906 5908 5910 5912 5913 5915 5916 5917 5919 5920 5922 5923 5925 5927 5928 5929 5930 5930 5932 5940 5942 5945 5945 5943 5939 5939 5938 5934 5930 5928 5928 5927 5924 5923 5923 5920 5918
5892 5894 5896 5896 5898 5900 5901 5904 5906 5908 5910 5912 5914 5915 5917 5919 5921 5921 5923 5925 5927 5928 5930 5930 5930 5929 5938 5945 5942 5945 5943 5943 5941 5941 5940 5937 5934 5930 5929 5930 5927 5925 5925 5924 5923
5890 5892 5894 5895 5896 5899 5901 5903 5905 5908 5910 5912 5914 5916 5918 5920 5922 5923 5925 5926 5927 5929 5930 5931 5931 5932 5937 5945 5943 5949 5944 5946 5942 5942 5941 5940 5935 5936 5935 5931 5929 5928 5927 5927 5925
5888 5889 5891 5894 5895 5897 5900 5902 5904 5907 5910 5912 5914 5916 5918 5920 5922 5924 5925 5927 5928 5929 5930 5931 5931 5930 5935 5940 5941 5943 5944 5946 5944 5943 5943 5940 5937 5936 5935 5934 5932 5930 5929 5928 5929
5885 5887 5889 5891 5893 5896 5898 5901 5904 5906 5909 5911 5914 5916 5919 5922 5922 5924 5926 5928 5929 5930 5931 5931 5933 5933 5934 5939 5942 5942 5944 5948 5946 5944 5946 5938 5938 5938 5937 5937 5934 5933 5931 5930 5928
5881 5884 5886 5888 5891 5894 5896 5899 5902 5905 5908 5910 5912 5915 5919 5920 5922 5924 5926 5928 5929 5930 5932 5932 5933 5934 5934 5937 5941 5942 5948 5952 5950 5948 5947 5941 5939 5940 5941 5939 5936 5935 5934 5932 5931
5877 5880 5883 5886 5888 5891 5894 5897 5900 5903 5906 5909 5912 5914 5917 5919 5922 5923 5926 5927 5929 5930 5931 5932 5934 5935 5935 5940 5943 5949 5952 5954 5952 5952 5950 5946 5943 5942 5942 5941 5938 5937 5936 5935 5934
5872 5875 5878 5881 5885 5888 5891 5894 5898 5900 5903 5907 5910 5914 5916 5919 5921 5923 5925 5927 5929 5930 5931 5932 5933 5936 5935 5939 5948 5958 5957 5956 5954 5953 5951 5947 5945 5944 5944 5943 5940 5939 5938 5938 5937
5866 5869 5873 5876 5880 5883 5888 5891 5895 5897 5899 5902 5906 5909 5915 5917 5919 5922 5924 5926 5928 5930 5932 5933 5934 5935 5937 5942 5949 5952 5959 5959 5956 5952 5954 5949 5947 5948 5944 5943 5943 5942 5940 5940 5939
5860 5863 5867 5870 5874 5878 5881 5884 5889 5896 5898 5900 5903 5907 5911 5914 5918 5921 5923 5926 5928 5930 5932 5933 5934 5935 5941 5947 5946 5950 5955 5958 5956 5953 5954 5955 5951 5947 5947 5943 5944 5945 5943 5941 5940
5852 5856 5860 5863 5867 5872 5876 5880 5885 5889 5892 5895 5900 5904 5908 5912 5915 5918 5922 5924 5926 5929 5931 5933 5935 5936 5941 5942 5945 5949 5954 5958 5956 5953 5953 5958 5956 5948 5946 5948 5943 5942 5944 5943 5942
5845 5848 5852 5856 5862 5864 5868 5874 5878 5883 5887 5892 5895 5900 5903 5907 5911 5915 5918 5922 5924 5928 5930 5932 5934 5937 5939 5940 5943 5950 5952 5954 5955 5954 5954 5954 5957 5949 5947 5947 5945 5942 5940 5942 5943
5837 5840 5844 5849 5853 5855 5864 5868 5873 5878 5881 5890 5893 5896 5899 5904 5910 5912 5916 5918 5922 5925 5928 5931 5932 5935 5937 5939 5942 5948 5949 5949 5950 5952 5953 5954 5956 5949 5947 5945 5946 5943 5940 5938 5939
5827 5832 5836 5840 5844 5847 5852 5857 5863 5870 5874 5879 5881 5887 5892 5899 5902 5906 5910 5915 5918 5920 5923 5926 5930 5932 5935 5937 5939 5943 5943 5944 5945 5949 5951 5952 5956 5951 5946 5944 5943 5941 5942 5940 5936
5816 5821 5826 5832 5835 5842 5846 5849 5856 5859 5874 5875 5875 5882 5889 5894 5897 5900 5906 5909 5913 5917 5920 5923 5927 5929 5931 5933 5937 5938 5941 5944 5946 5948 5949 5952 5954 5949 5946 5945 5945 5943 5941 5938 5938
5805 5810 5814 5821 5825 5830 5832 5837 5843 5854 5863 5871 5871 5877 5882 5888 5891 5895 5900 5904 5909 5914 5917 5920 5922 5925 5928 5930 5936 5936 5938 5944 5948 5951 5951 5949 5951 5952 5944 5942 5944 5946 5943 5937 5936
5791 5797 5803 5808 5813 5818 5822 5825 5839 5848 5860 5865 5870 5868 5875 5880 5886 5888 5894 5899 5904 5910 5913 5917 5919 5923 5924 5927 5931 5933 5934 5940 5944 5946 5948 5946 5945 5942 5943 5941 5939 5939 5941 5939 5930
5776 5783 5792 5795 5799 5804 5810 5822 5831 5842 5848 5860 5863 5868 5869 5874 5878 5882 5885 5893 5898 5903 5909 5914 5920 5921 5920 5922 5925 5929 5934 5936 5938 5942 5946 5947 5941 5939 5935 5935 5934 5935 5935 5936 5932
5760 5767 5775 5780 5784 5791 5803 5816 5824 5830 5837 5841 5850 5861 5864 5870 5872 5876 5880 5887 5891 5897 5903 5908 5914 5921 5920 5916 5920 5925 5927 5931 5938 5941 5943 5943 5935 5934 5931 5930 5933 5931 5931 5931 5931
5740 5751 5756 5764 5773 5783 5792 5804 5813 5818 5829 5828 5837 5846 5855 5864 5869 5872 5877 5880 5885 5889 5894 5901 5906 5911 5915 5916 5917 5922 5924 5926 5931 5934 5935 5935 5929 5924 5929 5928 5929 5928 5926 5929 5928
5718 5730 5738 5748 5760 5771 5779 5785 5793 5803 5813 5822 5828 5834 5843 5850 5860 5866 5872 5880 5881 5883 5886 5894 5897 5904 5909 5914 5911 5913 5918 5921 5924 5927 5929 5932 5927 5920 5922 5923 5924 5925 5922 5923 5924
5697 5710 5721 5732 5743 5753 5761 5771 5780 5791 5801 5811 5819 5825 5833 5838 5845 5854 5864 5872 5875 5878 5881 5887 5890 5893 5902 5908 5911 5909 5911 5917 5921 5922 5926 5927 5920 5918 5916 5914 5914 5918 5918 5916 5920
5675 5691 5701 5706 5727 5737 5746 5756 5766 5777 5791 5799 5805 5813 5822 5830 5836 5843 5852 5863 5867 5871 5872 5877 5879 5887 5893 5899 5907 5906 5905 5908 5913 5917 5922 5924 5920 5906 5907 5909 5910 5911 5911 5913 5911
5657 5665 5672 5694 5709 5717 5732 5743 5755 5769 5775 5786 5794 5804 5812 5818 5827 5835 5844 5851 5858 5863 5864 5867 5872 5878 5883 5891 5895 5902 5902 5901 5905 5910 5912 5914 5907 5902 5904 5905 5904 5907 5905 5906 5905
5633 5641 5662 5682 5689 5704 5715 5728 5740 5754 5763 5774 5786 5794 5800 5811 5821 5827 5837 5845 5850 5855 5854 5858 5865 5869 5873 5882 5888 5891 5897 5898 5900 5903 5905 5908 5902 5896 5895 5897 5900 5901 5898 5899 5898
Wind_Speed
10 9 8 9 12 13 14 14 15 16 16 18 18 19 18 17 22 25 25 20 22 21 21 19 23 29 33 37 26 23 13 6 8 14 8 10 12 17 16 15 14 14 13 10 10
11 10 8 9 13 14 14 15 15 16 17 18 18 18 18 19 21 22 22 20 19 17 18 19 20 27 29 16 18 22 4 6 3 12 4 10 4 11 13 14 15 16 12 12 10
11 12 10 9 13 16 15 15 16 15 16 18 17 18 17 18 18 19 18 18 17 16 18 17 15 16 22 8 12 4 8 2 3 13 2 5 3 7 9 10 13 14 16 15 14
14 15 12 10 13 17 15 15 16 17 15 16 17 17 16 15 16 16 16 15 14 14 16 17 18 26 17 2 12 7 1 5 5 16 8 4 7 3 8 7 11 12 14 14 14
16 16 15 12 14 18 17 15 16 17 17 16 16 16 17 15 15 14 14 14 13 12 13 15 15 24 7 4 15 6 0 5 4 10 2 7 5 7 5 7 10 10 12 14 15
18 17 18 14 15 19 18 17 16 17 17 17 16 15 16 14 14 14 13 12 11 12 12 11 9 16 20 10 7 11 4 6 3 6 8 4 5 11 10 9 9 10 11 13 15
20 19 21 17 16 21 20 19 18 18 17 17 16 15 15 14 14 14 13 13 12 12 12 12 12 15 18 10 8 13 10 6 3 12 5 6 6 11 13 9 7 8 10 12 13
23 21 21 21 18 22 23 22 20 19 18 17 17 16 15 15 16 14 14 13 12 11 11 12 14 14 13 24 16 18 12 5 3 2 4 6 6 15 12 9 7 7 9 11 11
26 24 22 25 21 23 25 24 23 21 19 18 17 16 17 16 15 15 15 14 13 11 9 10 11 14 27 25 17 7 7 13 3 7 6 5 10 17 15 7 10 9 9 9 9
29 27 26 26 26 24 27 27 26 24 23 20 18 18 17 16 16 17 16 15 14 12 9 8 9 16 22 15 11 3 2 9 7 9 4 14 11 25 17 6 10 11 11 11 10
31 31 29 28 30 27 29 30 31 30 27 27 24 22 17 17 18 18 18 17 15 14 12 10 8 12 17 11 8 15 5 10 7 5 9 13 17 29 19 8 9 12 15 17 14
33 33 33 31 32 32 31 34 32 28 29 27 26 22 20 19 20 19 19 17 15 15 13 10 7 10 9 7 12 21 14 11 9 7 17 13 19 26 11 11 13 7 8 11 14
35 36 35 35 34 35 34 33 33 33 32 32 29 26 25 24 22 21 20 19 18 15 12 12 7 8 9 14 22 12 12 8 10 12 15 10 15 24 24 11 19 18 6 6 8
35 37 38 38 36 36 38 36 36 36 35 34 33 30 30 27 25 24 24 23 21 17 15 13 14 10 13 14 16 7 7 10 14 12 7 8 11 25 28 27 19 25 18 10 7
34 38 39 41 38 40 37 37 36 35 37 33 31 31 31 29 26 26 25 25 22 20 18 12 12 15 14 12 12 11 12 18 16 16 10 16 6 24 25 25 17 16 25 22 13
38 36 40 40 40 42 40 42 41 39 39 32 38 36 34 31 31 29 29 27 24 23 20 17 15 15 14 15 16 14 18 20 10 9 13 11 11 13 20 19 17 15 19 24 26
40 41 40 40 43 40 39 41 43 46 36 34 39 35 34 32 31 32 31 30 28 25 20 20 17 17 15 16 14 16 12 3 1 5 9 13 12 11 7 13 7 14 20 26 26
45 43 44 42 44 42 46 47 49 46 40 24 36 36 35 34 34 35 31 32 30 26 23 24 25 21 17 14 17 15 14 12 1 6 8 16 14 20 26 25 27 25 23 27 25
50 48 46 47 47 46 48 52 49 44 38 39 21 28 36 36 35 36 34 33 31 27 27 21 22 19 18 18 21 16 19 19 14 11 12 16 11 20 26 33 32 23 20 27 32
55 53 48 51 50 51 51 53 48 43 40 30 24 25 26 35 38 38 39 33 32 31 26 22 15 18 24 21 23 19 11 18 14 12 15 15 24 23 28 29 24 20 19 21 28
60 58 52 55 56 54 49 49 48 46 45 44 35 27 27 27 35 35 37 32 34 32 31 29 22 18 27 29 22 22 23 21 13 10 11 15 22 24 31 34 25 24 21 21 21
65 62 59 59 57 54 49 46 47 48 45 52 42 38 27 28 29 36 34 32 29 32 34 34 25 25 27 26 24 23 25 19 20 25 20 18 18 27 29 30 28 29 29 20 21
71 67 65 63 59 57 55 53 52 50 49 48 49 47 42 34 30 32 35 29 29 28 34 32 37 24 26 26 30 28 25 19 20 24 16 21 27 33 36 34 33 26 28 21 21
74 71 66 68 63 62 62 58 55 52 51 48 50 39 47 46 37 35 35 34 32 31 30 34 33 40 27 27 22 25 25 28 23 21 17 16 22 32 32 36 35 23 21 26 21
75 71 61 68 66 65 65 63 59 54 52 51 53 43 46 51 47 44 37 32 35 30 40 40 40 34 36 30 27 24 25 28 29 27 23 20 25 34 36 31 29 23 26 27 28
66 62 61 75 73 71 66 65 62 56 56 55 54 52 45 50 52 46 35 29 32 34 40 39 43 40 32 37 29 26 26 26 28 26 31 29 25 32 28 30 35 29 36 33 29
57 63 67 73 71 74 72 69 65 59 56 55 53 52 50 47 47 36 28 28 31 37 45 45 37 39 42 41 28 30 24 27 21 29 25 22 32 36 38 40 41 38 39 34 33
Wind_Direction
201 195 183 188 182 175 168 168 165 164 160 156 150 144 136 125 140 141 136 133 136 129 123 123 117 109 98 83 71 69 56 214 50 51 15 359 37 42 46 56 65 61 64 65 73
213 204 198 193 192 184 179 174 175 169 165 161 154 149 142 137 138 140 144 139 141 139 134 129 125 123 90 47 46 23 5 19 76 111 11 356 31 26 44 45 60 76 60 78 77
227 211 209 201 198 188 185 182 178 178 173 168 161 154 148 145 145 149 151 151 140 139 133 129 127 118 73 66 90 119 110 25 60 110 0 7 356 300 44 52 58 56 66 53 62
231 217 213 211 200 193 185 188 183 181 179 176 168 162 157 153 149 148 148 148 145 144 137 133 128 92 74 347 116 46 79 71 69 103 217 54 338 29 21 38 59 58 58 58 60
230 223 215 215 205 195 188 186 187 186 184 181 181 172 163 156 159 155 152 149 146 145 139 136 144 98 96 207 95 114 73 74 112 118 206 191 330 24 347 36 49 52 53 60 49
230 228 218 214 207 196 193 186 185 189 189 186 184 181 173 173 163 159 155 150 145 140 134 126 125 134 148 160 144 199 154 112 39 65 122 307 56 9 6 6 36 41 46 43 63
223 229 222 214 206 200 196 191 188 188 191 191 190 186 182 176 169 161 158 154 146 140 138 128 130 134 134 85 132 140 92 105 59 67 117 231 77 14 354 354 24 30 34 45 42
225 223 224 218 209 202 201 196 192 190 191 192 191 186 179 186 175 166 161 156 150 144 140 137 133 127 113 118 105 80 101 177 175 90 321 314 322 356 353 355 28 31 27 28 47
229 223 222 220 214 206 205 201 198 196 196 194 191 187 184 184 180 172 166 163 156 148 138 130 132 120 114 84 68 40 129 199 227 150 312 8 300 353 348 4 38 35 40 38 36
225 227 221 219 218 212 208 206 204 202 201 200 197 195 192 191 183 174 168 165 160 153 151 148 143 126 105 114 97 354 215 209 261 189 108 263 269 311 330 33 48 53 53 55 54
227 225 224 219 217 216 213 211 208 206 205 204 204 202 206 192 186 181 177 176 169 165 162 165 160 142 113 120 241 170 153 229 237 218 125 276 277 306 346 27 56 55 50 52 58
229 225 224 222 219 216 216 216 214 213 211 211 207 208 206 202 198 193 189 185 177 174 174 167 154 144 140 245 231 161 164 214 218 247 135 243 282 299 348 334 355 3 16 27 31
233 227 224 222 220 219 217 219 217 217 215 214 212 210 211 209 205 200 198 196 193 189 183 177 160 176 194 209 180 177 148 214 238 274 155 195 257 269 294 325 303 329 317 341 16
239 232 227 224 221 221 219 218 219 220 220 217 215 212 213 215 213 208 204 204 206 200 199 191 172 235 206 192 179 175 177 204 242 241 238 291 243 261 282 311 314 333 335 347 332
242 238 231 226 223 222 221 222 221 220 222 226 219 219 216 220 222 218 215 212 211 210 213 195 205 191 201 203 161 148 192 231 223 219 225 225 250 267 273 295 299 303 327 331 343
235 239 237 231 226 224 219 220 219 219 219 224 222 218 219 216 219 216 217 216 214 216 218 211 214 208 199 198 184 198 233 230 231 224 234 224 247 256 267 285 267 272 308 312 316
234 232 236 235 231 228 227 222 220 219 213 219 230 222 219 219 223 224 221 221 220 221 221 222 214 225 212 204 210 209 210 201 209 238 240 241 237 263 276 224 226 278 284 289 292
237 232 230 229 235 230 226 222 219 217 215 201 234 224 221 219 219 228 220 222 220 220 225 225 222 224 228 213 224 209 195 164 205 282 273 239 216 221 244 246 253 261 263 281 284
236 235 230 229 227 229 229 227 220 218 213 207 216 234 222 222 220 230 225 225 226 223 220 228 226 246 233 219 210 213 206 167 248 252 230 262 242 253 255 254 266 266 244 247 277
235 234 231 231 227 224 230 226 222 218 211 207 219 220 229 220 223 222 230 224 225 222 214 201 240 226 256 227 213 207 251 205 223 217 227 243 260 267 274 285 266 283 265 244 246
233 233 228 228 229 225 233 234 228 221 213 200 204 216 219 223 220 223 232 228 227 224 216 202 204 221 236 237 219 214 213 212 208 193 227 253 231 233 255 273 285 292 273 268 259
230 229 227 228 229 228 226 231 227 226 217 215 210 202 204 219 224 220 223 231 230 224 221 212 209 192 225 232 232 211 226 217 208 221 213 219 273 253 252 261 275 282 279 276 271
227 225 226 225 225 228 224 223 221 219 222 220 221 218 195 194 217 222 221 221 227 223 215 217 213 212 200 229 241 221 219 231 223 201 216 230 255 267 268 274 274 280 284 278 278
224 225 224 223 221 223 224 223 220 219 217 221 220 226 212 199 195 204 213 222 223 221 223 207 223 217 216 214 238 245 219 222 233 232 219 238 255 269 280 273 279 286 277 284 286
222 222 224 221 216 218 223 224 220 217 218 217 219 219 224 215 205 200 199 211 224 219 231 216 216 220 211 202 227 245 245 226 216 213 229 233 233 236 248 269 276 274 291 286 284
228 225 222 219 214 213 217 222 226 217 214 216 220 220 221 221 218 215 209 197 218 217 229 234 219 218 219 199 203 231 246 247 226 226 223 216 255 256 259 262 271 284 286 285 285
223 225 224 216 217 215 211 215 219 220 216 214 217 221 219 223 221 223 212 221 211 221 230 231 224 224 227 205 213 216 216 238 233 226 229 228 241 261 266 267 272 280 280 285 289